Location: Churchill Northern Studies Centre
(58.7378°N, 93.8201°W)
Time: 05:15:15
(UTC-05:00)

Envisat - Pass Details

Date: 09 October 2017
Orbit: 764 x 766 km, 98.2° (Epoch: 21 October)

Event Time Altitude Azimuth Distance (km) Brightness Sun altitude
Exits shadow 20:44:40 13° 168° (SSE) 2,100 5.0 -18.8°
Maximum altitude 20:49:14 78° 254° (WSW) 789 3.1 -19.3°
Drops below altitude 10° 20:54:21 10° 342° (NNW) 2,318 6.0 -20.0°
Sets 20:56:41 0° 343° (NNW) 3,248 6.8 -20.2°
